FW5435 Weather Reports


time (UTC)temp
F
wind
direction
speed
knots
gust
knots
rain 1hr
in
rain 24hr
in
rain mn
in
humidity
%
barometer
mb
20220124104032 26 0 0.0 0.0 0.00 0.03 0.00 92 1011.3
20220124103534 26 0 0.0 0.9 0.00 0.03 0.00 92 1011.4
20220124103119 26 0 0.0 0.9 0.00 0.03 0.00 92 1011.4
20220124102537 26 0 0.0 1.7 0.00 0.03 0.00 92 1011.3
20220124102031 26 0 0.0 1.7 0.00 0.03 0.00 92 1011.2
20220124101637 26 0 0.0 1.7 0.00 0.03 0.00 92 1011.2
20220124101032 26 0 0.0 1.7 0.00 0.03 0.00 92 1011.1
20220124100532 26 0 0.0 1.7 0.00 0.03 0.00 92 1011.3
20220124100103 26 0 0.0 0.0 0.00 0.03 0.00 92 1011.0
20220124095542 26 0 0.0 0.0 0.00 0.03 0.00 92 1011.2
20220124095033 26 0 0.0 0.0 0.00 0.03 0.00 92 1011.1
20220124094605 26 0 0.0 0.0 0.00 0.03 0.00 92 1011.1
20220124094033 26 0 0.0 0.0 0.00 0.03 0.00 92 1010.9
20220124093544 26 0 0.0 0.0 0.00 0.03 0.00 92 1010.8
20220124093106 26 0 0.0 0.0 0.00 0.03 0.00 92 1010.9
20220124092543 26 0 0.0 0.0 0.00 0.03 0.00 92 1010.8
20220124092034 26 0 0.0 0.0 0.00 0.03 0.00 92 1010.8
20220124091627 26 0 0.0 0.0 0.00 0.03 0.00 92 1010.8
20220124091033 26 0 0.0 0.0 0.00 0.03 0.00 92 1010.6
20220124090546 26 0 0.0 0.0 0.00 0.03 0.00 92 1010.5
20220124090118 26 0 0.0 0.0 0.00 0.03 0.00 92 1010.5
20220124085540 26 0 0.0 0.0 0.00 0.03 0.00 92 1010.5
20220124085036 26 0 0.0 0.0 0.00 0.03 0.00 92 1010.6
20220124084600 26 0 0.0 0.0 0.00 0.03 0.00 92 1010.5
20220124084036 26 0 0.0 0.0 0.00 0.03 0.00 92 1010.5
20220124083536 26 0 0.0 0.0 0.00 0.03 0.00 92 1010.4
20220124083254 26 0 0.0 0.0 0.00 0.03 0.00 92 1010.4
20220124082536 26 0 0.0 0.0 0.00 0.03 0.00 92 1010.3
20220124082038 26 0 0.0 0.0 0.00 0.03 0.00 92 1010.3
20220124081626 26 0 0.0 1.7 0.00 0.03 0.00 92 1010.5
20220124081043 26 0 0.0 1.7 0.00 0.03 0.00 92 1010.4
20220124080535 26 232 0.0 1.7 0.00 0.03 0.00 92 1010.4
20220124080124 26 0 0.0 0.0 0.00 0.03 0.00 92 1010.4
20220124075539 26 0 0.0 0.0 0.00 0.03 0.00 92 1010.4
20220124075034 26 0 0.0 0.0 0.00 0.03 0.00 91 1010.4
20220124074617 26 0 0.0 0.0 0.00 0.03 0.00 91 1010.4
20220124074037 26 0 0.0 0.0 0.00 0.03 0.00 91 1010.4
20220124073535 26 0 0.0 0.0 0.00 0.03 0.00 91 1010.3
20220124073114 26 0 0.0 0.0 0.00 0.03 0.00 91 1010.3
20220124072546 26 0 0.0 0.0 0.00 0.03 0.00 91 1010.3
20220124072036 26 0 0.0 0.0 0.00 0.03 0.00 91 1010.3
20220124071630 26 0 0.0 0.0 0.00 0.03 0.00 91 1010.4
20220124071039 26 0 0.0 0.0 0.00 0.03 0.00 91 1010.3
20220124070539 26 0 0.0 0.0 0.00 0.03 0.00 91 1010.2
20220124070209 26 0 0.0 0.0 0.00 0.03 0.00 91 1010.1
20220124065538 26 0 0.0 0.0 0.00 0.03 0.00 91 1010.1
20220124065038 26 0 0.0 0.0 0.00 0.03 0.00 91 1010.1
20220124064614 26 0 0.0 0.0 0.00 0.03 0.00 91 1010.2
20220124064034 26 0 0.0 0.0 0.00 0.03 0.00 91 1010.1
20220124063534 26 0 0.0 0.0 0.00 0.03 0.00 91 1010.0
20220124063144 26 0 0.0 0.0 0.00 0.03 0.00 91 1010.0
20220124062544 26 0 0.0 0.0 0.00 0.03 0.00 91 1010.1
20220124062035 26 0 0.0 0.0 0.00 0.03 0.00 91 1010.0
20220124061636 26 0 0.0 0.0 0.00 0.03 0.00 91 1009.9
20220124061046 27 0 0.0 0.0 0.00 0.03 0.00 91 1009.9
20220124060535 27 0 0.0 1.7 0.00 0.03 0.00 91 1010.0
20220124060112 27 0 0.0 1.7 0.00 0.03 0.00 91 1009.9
20220124055536 27 0 0.0 0.0 0.00 0.03 0.00 91 1010.1
20220124055047 27 0 0.0 0.0 0.00 0.03 0.00 91 1010.1
20220124054639 27 0 0.0 0.0 0.00 0.03 0.00 91 1010.1
20220124054047 27 0 0.0 0.0 0.00 0.03 0.00 91 1010.1
20220124053537 27 0 0.0 0.0 0.00 0.03 0.00 90 1010.2
20220124053116 27 0 0.0 0.0 0.00 0.03 0.00 90 1010.1
20220124052541 27 0 0.0 0.0 0.00 0.03 0.00 90 1010.2
20220124052035 27 0 0.0 2.6 0.00 0.03 0.00 90 1010.3
20220124051606 27 0 0.0 2.6 0.00 0.03 0.00 90 1010.2
20220124051038 28 233 0.9 2.6 0.00 0.03 0.00 91 1010.3
20220124050534 27 0 0.0 1.7 0.00 0.03 0.00 91 1010.2
20220124050109 27 0 0.0 1.7 0.00 0.03 0.00 91 1010.0
20220124045534 27 0 0.0 1.7 0.00 0.03 0.03 90 1009.9
20220124045109 27 0 0.0 0.0 0.00 0.03 0.03 90 1010.0
20220124044617 27 0 0.0 0.0 0.00 0.03 0.03 91 1009.9
20220124044040 27 0 0.0 0.0 0.00 0.03 0.03 90 1009.9
20220124043557 27 0 0.0 0.0 0.00 0.03 0.03 90 1009.9
20220124043210 27 0 0.0 0.0 0.00 0.03 0.03 90 1010.0
20220124042533 28 0 0.0 0.0 0.00 0.03 0.03 90 1009.9
20220124042051 28 0 0.0 0.0 0.00 0.03 0.03 90 1009.9
20220124041852 28 0 0.0 0.0 0.00 0.03 0.03 90 1009.9
20220124041034 28 0 0.0 0.0 0.00 0.03 0.03 90 1010.0
20220124040535 28 0 0.0 0.0 0.00 0.03 0.03 91 1010.0
20220124040221 28 0 0.0 0.0 0.00 0.03 0.03 90 1010.1
20220124035535 28 0 0.0 0.0 0.00 0.03 0.03 90 1009.9
20220124035046 28 0 0.0 0.0 0.00 0.03 0.03 90 1009.9
20220124034551 28 0 0.0 0.0 0.00 0.03 0.03 90 1009.9
20220124034039 28 0 0.0 0.0 0.00 0.03 0.03 90 1009.8
20220124033532 28 0 0.0 0.0 0.00 0.03 0.03 90 1009.7
20220124033130 28 0 0.0 0.0 0.00 0.03 0.03 90 1009.7
20220124032534 28 0 0.0 0.0 0.00 0.03 0.03 89 1009.8
20220124032040 28 0 0.0 1.7 0.00 0.03 0.03 89 1009.8
20220124031557 28 0 0.0 1.7 0.00 0.03 0.03 89 1009.9
20220124031044 28 0 0.0 0.0 0.00 0.03 0.03 89 1009.8
20220124030546 28 0 0.0 1.7 0.00 0.03 0.03 89 1009.6
20220124030045 28 0 0.0 1.7 0.00 0.03 0.03 89 1009.6
20220124025538 29 0 0.0 1.7 0.00 0.03 0.03 89 1009.6
20220124025046 29 0 0.0 0.0 0.00 0.03 0.03 89 1009.5
20220124024658 29 0 0.0 1.7 0.00 0.03 0.03 89 1009.5
20220124024035 29 0 0.0 1.7 0.00 0.03 0.03 89 1009.4
20220124023545 29 217 0.0 1.7 0.00 0.03 0.03 89 1009.4
20220124023126 29 0 0.0 0.0 0.00 0.03 0.03 89 1009.3
20220124022538 29 0 0.0 0.0 0.00 0.03 0.03 89 1009.3
20220124022036 29 0 0.0 0.0 0.00 0.03 0.03 89 1009.4
20220124021652 29 0 0.0 1.7 0.00 0.03 0.03 89 1009.3
20220124021036 29 0 0.0 1.7 0.00 0.03 0.03 89 1009.1
20220124020536 29 0 0.0 1.7 0.00 0.03 0.03 89 1009.2
20220124020202 29 0 0.0 0.0 0.00 0.03 0.03 89 1009.3
20220124015534 29 0 0.0 0.0 0.00 0.03 0.03 88 1009.2
20220124015045 29 0 0.0 0.0 0.00 0.03 0.03 88 1009.2
20220124014607 29 0 0.0 0.0 0.00 0.03 0.03 88 1009.5
20220124014037 30 0 0.0 1.7 0.00 0.03 0.03 88 1009.6
20220124013537 30 0 0.0 1.7 0.00 0.03 0.03 88 1009.7
20220124013154 30 0 0.0 0.0 0.00 0.03 0.03 88 1009.6
20220124012552 30 0 0.0 0.0 0.00 0.03 0.03 88 1009.7
20220124012038 30 0 0.0 0.0 0.00 0.03 0.03 88 1009.7
20220124011715 30 0 0.0 0.0 0.00 0.03 0.03 88 1009.8
20220124011036 30 0 0.0 0.0 0.00 0.03 0.03 87 1009.8
20220124010532 30 0 0.0 0.0 0.00 0.03 0.03 87 1009.8
20220124010117 31 0 0.0 0.0 0.00 0.03 0.03 87 1009.8
20220124005537 31 0 0.0 0.0 0.00 0.03 0.03 87 1009.9
20220124005034 31 0 0.0 0.0 0.00 0.03 0.03 87 1010.0
20220124004553 31 0 0.0 0.0 0.00 0.03 0.03 86 1010.0
20220124004037 31 0 0.0 0.0 0.00 0.03 0.03 86 1010.0
20220124003538 31 0 0.0 0.0 0.00 0.03 0.03 86 1010.1
20220124003134 32 0 0.0 2.6 0.00 0.03 0.03 86 1010.1
20220124002539 32 0 0.0 2.6 0.00 0.03 0.03 86 1010.0
20220124002045 32 0 0.9 2.6 0.00 0.03 0.03 86 1010.1
20220124001604 32 217 0.0 1.7 0.00 0.03 0.03 85 1010.1
20220124001038 33 0 0.0 1.7 0.00 0.03 0.03 85 1010.1
20220124000531 33 217 0.0 1.7 0.00 0.03 0.03 85 1010.2
20220124000204 33 0 0.0 1.7 0.00 0.03 0.03 84 1010.1
20220123235533 33 0 0.0 1.7 0.00 0.03 0.03 84 1010.0
20220123235048 34 0 0.0 2.6 0.00 0.03 0.03 83 1010.1
20220123234640 34 0 0.0 2.6 0.00 0.03 0.03 82 1010.1
20220123234041 34 217 0.9 1.7 0.00 0.03 0.03 81 1010.2
20220123233535 35 217 0.0 1.7 0.00 0.03 0.03 80 1010.1
20220123233101 35 0 0.0 1.7 0.00 0.03 0.03 79 1010.0
20220123232551 36 0 0.0 2.6 0.00 0.03 0.03 79 1010.1
20220123232039 36 217 0.9 2.6 0.00 0.03 0.03 78 1010.1
20220123231618 37 217 0.0 1.7 0.00 0.03 0.03 78 1010.1
20220123231040 37 217 0.0 1.7 0.00 0.03 0.03 76 1010.2
20220123230542 37 0 0.0 1.7 0.00 0.03 0.03 76 1010.2
20220123230058 38 0 0.0 1.7 0.00 0.03 0.03 76 1010.1
20220123225545 38 217 0.0 1.7 0.00 0.03 0.03 75 1010.2
20220123225045 39 0 0.0 0.0 0.00 0.03 0.03 74 1010.2
20220123224605 39 0 0.0 1.7 0.00 0.03 0.03 73 1010.4
20220123224033 40 0 0.0 1.7 0.00 0.03 0.03 72 1010.3
20220123223541 40 217 0.9 1.7 0.00 0.03 0.03 73 1010.3
20220123223106 41 217 0.0 1.7 0.00 0.03 0.03 71 1010.4
20220123222534 42 0 0.0 1.7 0.00 0.03 0.03 69 1010.4
20220123222047 43 0 0.0 0.0 0.00 0.03 0.03 64 1010.2
20220123221623 44 0 0.0 0.0 0.00 0.03 0.03 61 1010.1
20220123221036 44 0 0.0 0.0 0.00 0.03 0.03 60 1010.1
20220123220532 44 0 0.0 0.0 0.00 0.03 0.03 60 1010.1
20220123220059 45 0 0.0 1.7 0.00 0.03 0.03 58 1010.3
20220123215542 45 0 0.0 2.6 0.00 0.05 0.03 56 1010.2
20220123215032 45 217 0.0 2.6 0.00 0.05 0.03 59 1010.3
20220123214621 45 0 0.0 3.5 0.00 0.05 0.03 55 1010.4
20220123214039 45 0 0.0 3.5 0.00 0.05 0.03 55 1010.3
20220123213541 45 225 0.9 3.5 0.00 0.05 0.03 53 1010.0
20220123213204 45 0 0.0 1.7 0.00 0.05 0.03 54 1010.1
20220123212534 46 0 0.0 3.5 0.00 0.05 0.03 55 1010.1
20220123212034 46 0 0.9 7.0 0.00 0.05 0.03 51 1010.1
20220123211606 46 213 1.7 7.0 0.00 0.05 0.03 51 1010.1
20220123211044 46 209 1.7 7.0 0.00 0.05 0.03 51 1010.0
20220123210534 46 223 1.7 4.3 0.00 0.05 0.03 52 1010.1
20220123210056 46 205 0.9 5.2 0.00 0.05 0.03 52 1010.3
20220123205536 46 173 0.9 5.2 0.00 0.09 0.03 51 1010.4
20220123205033 47 206 2.6 7.0 0.00 0.09 0.03 50 1010.6
20220123204555 47 230 1.7 7.0 0.00 0.09 0.03 50 1010.6
20220123204035 48 331 2.6 7.0 0.00 0.09 0.03 50 1010.7
20220123203538 48 223 0.9 7.0 0.00 0.09 0.03 51 1010.8
20220123203043 47 182 1.7 7.0 0.00 0.09 0.03 51 1010.7
20220123202539 48 188 1.7 7.0 0.01 0.09 0.03 49 1010.7
20220123202036 47 291 0.9 7.8 0.01 0.09 0.03 51 1010.8
20220123201609 47 228 1.7 7.8 0.01 0.09 0.03 49 1010.6
20220123201034 47 189 2.6 7.8 0.01 0.09 0.03 50 1010.7
20220123200536 47 227 1.7 4.3 0.01 0.09 0.03 51 1010.8
20220123200102 47 193 0.9 6.1 0.01 0.09 0.03 52 1010.9
20220123195549 47 216 1.7 6.1 0.01 0.14 0.03 53 1010.7
20220123195035 46 175 1.7 7.0 0.01 0.14 0.03 54 1010.9
20220123194600 46 197 1.7 7.0 0.01 0.14 0.03 53 1011.0
20220123194045 46 221 2.6 7.0 0.01 0.14 0.03 52 1010.8
20220123193532 46 200 2.6 7.0 0.01 0.14 0.03 54 1010.8
20220123193047 46 214 2.6 7.0 0.02 0.14 0.03 54 1011.1
20220123192536 46 204 1.7 6.1 0.01 0.13 0.02 54 1011.1
20220123192032 46 211 1.7 6.1 0.01 0.13 0.02 52 1011.3
20220123191628 46 219 0.9 6.1 0.01 0.13 0.02 53 1011.4
20220123191036 45 198 0.9 7.0 0.01 0.13 0.02 54 1011.5
20220123190604 45 127 1.7 7.0 0.01 0.13 0.02 52 1011.6
20220123190231 45 178 2.6 7.0 0.02 0.13 0.02 51 1011.6
20220123185534 45 213 0.9 4.3 0.02 0.20 0.02 55 1011.6
20220123185038 44 0 1.7 5.2 0.02 0.20 0.02 54 1011.6
20220123184604 44 214 0.9 6.1 0.02 0.20 0.02 58 1011.9
20220123184032 44 186 1.7 6.1 0.02 0.20 0.02 53 1011.8
20220123183547 43 207 0.9 8.7 0.02 0.20 0.02 55 1012.0
20220123183146 43 202 1.7 8.7 0.01 0.19 0.01 53 1012.1
20220123182535 43 234 3.5 8.7 0.01 0.19 0.01 53 1012.2
20220123182035 43 213 2.6 7.0 0.01 0.19 0.01 55 1012.3
20220123181707 42 204 2.6 7.0 0.01 0.19 0.01 52 1012.4
20220123181038 42 318 1.7 7.0 0.01 0.19 0.01 53 1012.5
20220123180534 42 225 0.9 8.7 0.01 0.19 0.01 55 1012.3
20220123180122 41 236 2.6 8.7 0.00 0.18 0.00 54 1012.5
20220123175534 41 200 1.7 7.0 0.00 0.18 0.00 54 1012.6
20220123175035 41 0 2.6 7.0 0.00 0.18 0.00 54 1012.8
20220123174555 41 199 0.9 3.5 0.00 0.18 0.00 56 1012.8
20220123174034 40 0 0.9 4.3 0.00 0.18 0.00 56 1013.0
20220123173537 40 196 1.7 4.3 0.00 0.18 0.00 58 1013.2
20220123173102 40 0 0.9 5.2 0.00 0.18 0.00 56 1013.5
20220123172536 40 218 0.0 5.2 0.00 0.18 0.00 58 1013.7
20220123172103 40 199 1.7 7.0 0.00 0.18 0.00 58 1014.1
20220123171557 39 0 1.7 7.0 0.00 0.18 0.00 59 1014.4
20220123171034 39 248 0.0 5.2 0.00 0.18 0.00 61 1014.3
20220123170533 39 242 0.9 5.2 0.00 0.18 0.00 60 1014.5
20220123170235 39 197 0.9 5.2 0.00 0.18 0.00 59 1014.7
20220123165534 38 210 0.9 4.3 0.00 0.18 0.00 62 1014.8
20220123165042 38 0 0.9 5.2 0.00 0.18 0.00 62 1014.9
20220123164609 38 206 1.7 5.2 0.00 0.18 0.00 62 1015.0
20220123164034 38 155 1.7 3.5 0.00 0.18 0.00 62 1015.2
20220123163537 37 0 0.9 5.2 0.00 0.18 0.00 63 1015.4
20220123163129 37 0 0.9 5.2 0.00 0.18 0.00 63 1015.4
20220123162536 36 187 0.9 3.5 0.00 0.18 0.00 63 1015.5
20220123162035 36 182 0.9 3.5 0.00 0.18 0.00 66 1015.6
20220123161606 36 209 1.7 3.5 0.00 0.18 0.00 64 1015.8
20220123161041 35 207 0.0 3.5 0.00 0.18 0.00 65 1015.9
20220123160547 35 209 0.0 6.1 0.00 0.18 0.00 65 1016.0
20220123160052 35 193 0.9 6.1 0.00 0.18 0.00 66 1016.1
20220123155532 34 247 0.9 5.2 0.00 0.18 0.00 66 1016.1
20220123155035 34 209 0.9 4.3 0.00 0.18 0.00 68 1016.1
20220123154606 33 277 0.9 7.0 0.00 0.18 0.00 67 1016.3
20220123154034 33 205 2.6 7.0 0.00 0.18 0.00 67 1016.5
20220123153537 33 293 0.9 7.0 0.00 0.18 0.00 67 1016.4
20220123153058 32 0 1.7 7.0 0.00 0.18 0.00 67 1016.5
20220123152534 32 217 1.7 7.0 0.00 0.18 0.00 67 1016.7
20220123152035 32 218 2.6 7.0 0.00 0.18 0.00 67 1016.6
20220123151606 31 0 0.9 5.2 0.00 0.18 0.00 69 1016.8
20220123151032 31 251 0.9 2.6 0.00 0.18 0.00 70 1016.9
20220123150534 30 0 0.0 2.6 0.00 0.18 0.00 71 1016.9
20220123150107 29 0 0.0 1.7 0.00 0.18 0.00 75 1016.9
20220123145535 29 0 0.0 1.7 0.00 0.18 0.00 74 1016.9
20220123145039 28 0 0.0 1.7 0.00 0.18 0.00 77 1016.8
20220123144604 27 263 0.0 0.0 0.00 0.18 0.00 78 1016.8
20220123144036 26 0 0.0 1.7 0.00 0.18 0.00 79 1016.9
20220123143531 26 0 0.0 1.7 0.00 0.18 0.00 82 1016.9
20220123143103 25 0 0.0 1.7 0.00 0.18 0.00 86 1017.0
20220123142547 24 0 0.0 0.9 0.00 0.18 0.00 87 1017.0
20220123142047 23 0 0.0 0.0 0.00 0.18 0.00 90 1017.1
20220123141558 22 0 0.0 0.0 0.00 0.18 0.00 91 1017.1
20220123141033 22 0 0.0 0.0 0.00 0.18 0.00 91 1017.3
20220123140533 21 0 0.0 0.0 0.00 0.18 0.00 91 1017.3
20220123140135 20 0 0.0 0.0 0.00 0.18 0.00 91 1017.6
20220123135532 20 0 0.0 0.0 0.00 0.18 0.00 91 1017.5
20220123135032 19 0 0.0 0.0 0.00 0.18 0.00 91 1017.6
20220123134716 19 0 0.0 0.0 0.00 0.18 0.00 91 1017.6
20220123134037 18 0 0.0 0.0 0.00 0.18 0.00 91 1017.8
20220123133533 18 0 0.0 1.7 0.00 0.18 0.00 91 1017.9
20220123133207 17 0 0.0 1.7 0.00 0.18 0.00 91 1017.9
20220123132546 17 263 0.9 1.7 0.00 0.18 0.00 90 1017.9
20220123132040 16 0 0.0 0.9 0.00 0.18 0.00 90 1018.0
20220123131603 16 0 0.0 1.7 0.00 0.18 0.00 90 1017.9
20220123131033 16 263 0.0 1.7 0.00 0.18 0.00 89 1017.9
20220123130546 15 263 0.0 1.7 0.00 0.18 0.00 89 1018.0
20220123130140 15 263 0.0 1.7 0.00 0.18 0.00 89 1018.0
20220123125538 15 0 0.0 0.0 0.00 0.18 0.00 89 1017.9
20220123125032 15 0 0.0 1.7 0.00 0.18 0.00 89 1018.0
20220123124619 14 0 0.0 1.7 0.00 0.18 0.00 89 1017.9
20220123124031 14 0 0.0 1.7 0.00 0.18 0.00 89 1018.0
20220123123533 14 263 0.9 1.7 0.00 0.18 0.00 89 1018.0
20220123123055 14 0 0.0 1.7 0.00 0.18 0.00 89 1018.0
20220123122543 14 0 0.0 1.7 0.00 0.18 0.00 89 1017.8
20220123122042 14 263 0.9 1.7 0.00 0.18 0.00 89 1017.8
20220123121556 14 0 0.0 1.7 0.00 0.18 0.00 89 1017.9
20220123121031 14 0 0.0 1.7 0.00 0.18 0.00 88 1017.8
20220123120534 14 0 0.0 2.6 0.00 0.18 0.00 88 1017.8
20220123120113 14 263 0.0 2.6 0.00 0.18 0.00 88 1018.0
20220123115532 14 263 0.9 1.7 0.00 0.18 0.00 89 1018.0
20220123115034 14 0 0.0 1.7 0.00 0.18 0.00 89 1017.9
20220123114559 14 263 0.9 1.7 0.00 0.18 0.00 89 1017.8
20220123114037 14 0 0.0 1.7 0.00 0.18 0.00 89 1017.7
20220123113536 14 0 0.0 1.7 0.00 0.18 0.00 89 1017.7
20220123113106 14 263 0.0 1.7 0.00 0.18 0.00 89 1017.8
20220123112627 14 0 0.0 1.7 0.00 0.18 0.00 89 1017.7
20220123112035 14 0 0.0 0.0 0.00 0.18 0.00 89 1017.8
20220123111545 14 0 0.0 0.9 0.00 0.18 0.00 89 1017.6
20220123111057 14 0 0.0 1.7 0.00 0.18 0.00 89 1017.7
20220123110534 14 0 0.0 1.7 0.00 0.18 0.00 89 1017.7
20220123110123 14 0 0.0 1.7 0.00 0.18 0.00 89 1017.8
20220123105535 14 263 0.9 1.7 0.00 0.18 0.00 89 1017.9
20220123105034 14 0 0.0 1.7 0.00 0.18 0.00 89 1017.9
20220123104617 14 0 0.0 1.7 0.00 0.18 0.00 89 1017.8